MORELOS 3

Last updated on Tue Jul 01 2025 00:02:46 GMT+0000 (Coordinated Universal Time)

1 40946U 15056A 25181.50676531 -.00000046 00000+0 00000+0 0 9999 2 40946 2.9910 4.5028 0000465 168.0192 175.6331 1.00272537 35750
UTC large
Height (km)
Speed (km/s)
/
Latitude / Longitude
Inclination (degrees)
Orbital Period (minutes)
Azimuth
Elevation
Range (km)
Doppler Factor

Next 0 passes for location: London (51.5072 / 0.1276)

Sorry there are no passes over London.